Location: Unspecified
(0.0000°N, 0.0000°E)
Time: 17:49:02
(UTC+00:00)

ARIANE 6 FM1 Upper Stage - Pass Details

Date: 14 September 2024
Orbit: 566 x 594 km, 62.0° (Epoch: 14 September)

Event Time Altitude Azimuth Distance (km) Brightness Sun altitude
Rises 19:11:42 0° 190° (S) 2,761 6.3 -19.1°
Reaches altitude 10° 19:14:04 10° 181° (S) 1,864 5.3 -19.7°
Enters shadow 19:16:10 24° 160° (SSE) 1,185 4.1 -20.2°
